DW2913 Weather Reports


Display with metric or nautical units.
time (UTC)temp
F
wind
direction
speed
MPH
gust
MPH
rain 1hr
in
rain 24hr
in
rain mn
in
humidity
%
barometer
mb
20190318172214 37 228 4.0 6.0 0.00 0.21 0.06 83 1021.6
20190318171715 37 254 3.0 8.0 0.00 0.23 0.06 83 1021.5
20190318171211 37 255 3.0 8.0 0.00 0.23 0.06 83 1021.4
20190318170714 38 255 3.0 8.0 0.00 0.23 0.06 83 1021.3
20190318170213 38 255 4.0 8.0 0.00 0.23 0.06 83 1021.3
20190318165711 38 257 3.0 8.0 0.00 0.24 0.06 83 1021.3
20190318165211 38 260 2.0 8.0 0.00 0.24 0.06 83 1021.3
20190318164712 38 278 4.0 11.0 0.00 0.24 0.06 83 1021.3
20190318164213 38 278 5.0 11.0 0.00 0.24 0.06 83 1021.3
20190318163713 38 273 5.0 11.0 0.01 0.24 0.06 83 1021.3
20190318163213 38 278 5.0 11.0 0.01 0.24 0.06 83 1021.2
20190318162712 38 267 5.0 8.0 0.01 0.24 0.06 84 1021.1
20190318162212 38 292 4.0 8.0 0.01 0.24 0.06 85 1021.1
20190318161710 38 293 4.0 12.0 0.01 0.24 0.06 85 1020.9
20190318161211 38 275 3.0 12.0 0.01 0.24 0.06 85 1020.7
20190318160714 37 269 5.0 11.0 0.01 0.24 0.06 84 1020.8
20190318160213 37 256 5.0 11.0 0.02 0.24 0.06 84 1020.8
20190318155711 37 250 5.0 11.0 0.02 0.24 0.06 84 1020.7
20190318155212 37 272 5.0 9.0 0.02 0.24 0.06 83 1020.7
20190318154713 36 259 5.0 9.0 0.02 0.24 0.06 83 1020.7
20190318154212 36 230 5.0 8.0 0.01 0.23 0.06 82 1020.7
20190318153713 36 212 5.0 8.0 0.01 0.23 0.06 82 1020.6
20190318153211 35 214 4.0 9.0 0.01 0.23 0.06 82 1020.6
20190318152712 35 227 3.0 9.0 0.01 0.23 0.06 82 1020.5
20190318152212 35 243 3.0 12.0 0.01 0.23 0.06 83 1020.6
20190318151710 35 244 4.0 12.0 0.01 0.23 0.06 83 1020.6
20190318151211 35 275 6.0 12.0 0.00 0.22 0.06 83 1020.5
20190318150713 35 277 6.0 7.0 0.00 0.22 0.05 83 1020.6
20190318150213 35 271 5.0 7.0 0.00 0.22 0.05 83 1020.7
20190318145711 36 250 4.0 7.0 0.00 0.22 0.05 83 1020.8
20190318145212 36 254 3.0 9.0 0.00 0.22 0.05 83 1020.5
20190318144712 36 252 4.0 9.0 0.00 0.22 0.05 83 1020.5
20190318144212 36 266 5.0 10.0 0.00 0.22 0.05 82 1020.4
20190318143714 35 282 5.0 10.0 0.00 0.22 0.05 83 1020.4
20190318143211 35 278 5.0 19.0 0.00 0.22 0.05 83 1020.4
20190318142712 35 268 5.0 19.0 0.00 0.22 0.05 84 1020.4
20190318142213 35 264 7.0 23.0 0.00 0.22 0.05 84 1020.4
20190318141711 35 269 11.0 23.0 0.00 0.22 0.05 84 1020.4
20190318141211 37 284 12.0 23.0 0.00 0.22 0.05 82 1020.4
20190318140714 40 273 9.0 16.0 0.00 0.22 0.05 78 1020.1
20190318140214 41 240 8.0 16.0 0.00 0.22 0.05 76 1019.7
20190318135711 41 241 7.0 16.0 0.00 0.22 0.05 74 1019.5
20190318135211 41 249 6.0 12.0 0.00 0.22 0.05 75 1019.6
20190318134712 42 203 7.0 12.0 0.00 0.22 0.05 74 1019.5
20190318134213 42 239 6.0 14.0 0.00 0.22 0.05 73 1019.3
20190318133714 42 217 6.0 14.0 0.00 0.22 0.05 75 1019.3
20190318133212 41 244 8.0 14.0 0.00 0.22 0.05 76 1019.4
20190318132712 41 220 8.0 14.0 0.00 0.22 0.05 78 1019.6
20190318132212 40 201 7.0 10.0 0.00 0.22 0.05 76 1019.6
20190318131710 40 213 6.0 10.0 0.00 0.22 0.05 77 1019.6
20190318131211 40 237 5.0 9.0 0.00 0.22 0.05 78 1019.6
20190318130714 39 196 4.0 9.0 0.00 0.22 0.05 79 1019.6
20190318130213 38 249 4.0 9.0 0.00 0.22 0.05 81 1019.6
20190318125711 37 246 4.0 9.0 0.00 0.22 0.05 81 1019.6
20190318125211 37 213 5.0 19.0 0.00 0.22 0.05 82 1019.6
20190318124713 37 212 5.0 19.0 0.00 0.22 0.05 83 1019.7
20190318124212 36 227 7.0 19.0 0.00 0.22 0.05 83 1019.8
20190318123712 37 234 9.0 19.0 0.00 0.22 0.05 81 1019.8
20190318123211 38 229 8.0 12.0 0.00 0.22 0.05 80 1019.8
20190318122713 38 255 6.0 12.0 0.00 0.22 0.05 80 1019.8
20190318122212 38 254 5.0 13.0 0.00 0.22 0.05 80 1019.7
20190318121710 38 238 5.0 13.0 0.00 0.22 0.05 81 1019.7
20190318121211 38 242 6.0 14.0 0.01 0.22 0.05 81 1019.8
20190318120716 38 292 7.0 14.0 0.01 0.22 0.05 80 1019.9
20190318120216 39 227 7.0 13.0 0.01 0.22 0.05 80 1019.8
20190318115713 39 271 6.0 13.0 0.01 0.22 0.05 79 1019.8
20190318115211 39 227 6.0 13.0 0.01 0.22 0.05 80 1019.9
20190318114711 39 212 6.0 13.0 0.01 0.22 0.05 78 1019.8
20190318114213 39 225 7.0 13.0 0.01 0.22 0.05 76 1019.8
20190318113715 39 211 7.0 12.0 0.01 0.22 0.05 77 1019.7
20190318113212 39 218 6.0 12.0 0.01 0.22 0.05 78 1019.7
20190318112713 39 254 6.0 12.0 0.01 0.22 0.05 78 1019.7
20190318112215 38 257 7.0 12.0 0.01 0.22 0.05 76 1019.8
20190318111712 38 240 6.0 15.0 0.00 0.21 0.05 77 1019.8
20190318111210 38 281 7.0 15.0 0.00 0.21 0.04 77 1019.8
20190318110714 38 254 7.0 15.0 0.00 0.21 0.04 76 1019.8
20190318110213 38 255 6.0 15.0 0.00 0.21 0.04 76 1019.8
20190318105710 38 304 7.0 15.0 0.00 0.21 0.04 77 1019.7
20190318105211 38 289 9.0 14.0 0.00 0.21 0.04 75 1019.6
20190318104712 38 286 9.0 14.0 0.00 0.21 0.04 75 1019.6
20190318104212 39 295 8.0 15.0 0.00 0.21 0.04 75 1019.5
20190318103713 39 289 9.0 15.0 0.00 0.21 0.04 75 1019.4
20190318103211 39 259 9.0 17.0 0.00 0.21 0.04 75 1019.3
20190318102712 39 281 9.0 17.0 0.00 0.21 0.04 76 1019.3
20190318102212 39 251 8.0 17.0 0.00 0.21 0.04 76 1019.2
20190318101711 39 282 7.0 17.0 0.00 0.21 0.04 77 1019.0
20190318101211 39 270 9.0 17.0 0.00 0.21 0.04 77 1018.9
20190318100713 39 275 11.0 16.0 0.00 0.21 0.04 76 1018.9
20190318100213 39 225 9.0 16.0 0.00 0.21 0.04 76 1018.9
20190318095711 39 270 8.0 16.0 0.00 0.21 0.04 78 1018.9
20190318095212 39 263 9.0 16.0 0.00 0.21 0.04 79 1018.9
20190318094712 39 271 10.0 16.0 0.00 0.21 0.04 78 1018.8
20190318094212 39 267 10.0 16.0 0.01 0.21 0.04 77 1018.7
20190318093713 39 286 9.0 16.0 0.01 0.21 0.04 78 1018.7
20190318093211 39 284 9.0 14.0 0.01 0.21 0.04 79 1018.5
20190318092712 39 278 8.0 14.0 0.01 0.21 0.04 80 1018.4
20190318092212 39 272 7.0 14.0 0.01 0.21 0.04 81 1018.5
20190318091718 39 296 7.0 14.0 0.01 0.21 0.04 82 1018.2
20190318091211 39 274 7.0 13.0 0.02 0.21 0.04 83 1018.3
20190318090714 38 246 6.0 15.0 0.02 0.21 0.04 84 1018.2
20190318090213 38 257 6.0 15.0 0.02 0.21 0.04 84 1018.1
20190318085711 38 298 7.0 15.0 0.02 0.21 0.04 85 1018.0
20190318085211 38 270 8.0 15.0 0.03 0.21 0.04 85 1018.0
20190318084712 37 269 9.0 15.0 0.03 0.21 0.04 85 1018.1
20190318084212 37 287 9.0 15.0 0.02 0.20 0.04 85 1017.9
20190318083713 37 277 9.0 15.0 0.02 0.20 0.03 85 1017.9
20190318083211 37 280 9.0 13.0 0.02 0.20 0.03 84 1017.9
20190318082712 36 248 8.0 13.0 0.02 0.20 0.03 83 1017.8
20190318082212 36 261 6.0 9.0 0.02 0.20 0.03 81 1017.7
20190318081711 35 274 5.0 9.0 0.02 0.20 0.02 80 1017.5
20190318081211 35 254 4.0 7.0 0.02 0.20 0.02 80 1017.4
20190318080714 35 293 4.0 8.0 0.02 0.20 0.02 81 1017.4
20190318080213 35 239 3.0 8.0 0.01 0.19 0.02 81 1017.3
20190318075711 35 257 3.0 8.0 0.01 0.19 0.01 81 1017.3
20190318075211 35 254 4.0 6.0 0.00 0.18 0.01 81 1017.2
20190318074713 34 243 3.0 6.0 0.00 0.18 0.01 81 1017.2
20190318074212 34 237 2.0 6.0 0.00 0.18 0.01 81 1017.2
20190318073713 34 236 3.0 6.0 0.00 0.18 0.01 82 1017.1
20190318073210 34 234 2.0 5.0 0.00 0.18 0.01 82 1017.1
20190318072713 34 239 1.0 5.0 0.00 0.18 0.01 82 1017.1
20190318072213 34 253 1.0 6.0 0.00 0.18 0.01 83 1017.0
20190318071711 34 257 0.0 6.0 0.00 0.18 0.01 83 1016.8
20190318071213 34 259 2.0 6.0 0.00 0.18 0.01 83 1016.7
20190318070714 34 259 2.0 5.0 0.00 0.18 0.01 83 1016.8
20190318070213 34 257 2.0 5.0 0.00 0.18 0.01 84 1016.7
20190318065711 34 257 1.0 5.0 0.00 0.18 0.01 84 1016.6
20190318065211 34 257 1.0 8.0 0.00 0.18 0.01 84 1016.6
20190318064712 34 257 2.0 8.0 0.00 0.18 0.01 85 1016.7
20190318064213 34 257 4.0 9.0 0.00 0.18 0.01 85 1016.5
20190318063713 35 254 4.0 9.0 0.00 0.18 0.01 85 1016.5
20190318063211 35 275 4.0 9.0 0.00 0.18 0.01 85 1016.3
20190318062713 35 261 4.0 9.0 0.00 0.18 0.01 85 1016.3
20190318062212 35 265 3.0 8.0 0.00 0.18 0.01 85 1016.3
20190318061710 35 253 3.0 8.0 0.00 0.18 0.01 85 1016.3
20190318061212 35 254 3.0 6.0 0.00 0.18 0.01 85 1016.2
20190318060715 35 235 4.0 6.0 0.00 0.18 0.01 85 1016.0
20190318060216 35 224 4.0 6.0 0.00 0.18 0.01 85 1016.0
20190318055713 35 226 3.0 6.0 0.00 0.18 0.01 85 1016.0
20190318055213 35 210 2.0 6.0 0.00 0.18 0.01 85 1015.9
20190318054711 35 201 3.0 6.0 0.00 0.18 0.01 85 1015.7
20190318054213 35 197 3.0 0.0 0.00 0.18 0.01 85 1015.8
20190318053714 35 195 2.0 0.0 0.00 0.18 0.01 85 1015.7
20190318053215 35 193 1.0 0.0 0.00 0.18 0.01 85 1015.8
20190318052715 35 190 0.0 0.0 0.00 0.18 0.01 85 1015.9
20190318052214 35 190 0.0 0.0 0.00 0.18 0.01 84 1015.7
20190318051714 35 190 0.0 0.0 0.00 0.18 0.01 84 1015.6
20190318051212 35 190 0.0 0.0 0.00 0.18 0.01 85 1015.8
20190318050714 34 190 0.0 5.0 0.00 0.18 0.01 85 1015.9
20190318050213 34 190 0.0 5.0 0.00 0.18 0.01 85 1016.0
20190318045711 34 186 1.0 5.0 0.00 0.18 0.01 85 1016.1
20190318045211 34 187 1.0 4.0 0.00 0.18 0.01 85 1016.1
20190318044713 34 189 1.0 4.0 0.00 0.18 0.01 85 1015.9
20190318044215 35 190 0.0 0.0 0.00 0.18 0.01 85 1015.8
20190318043713 35 190 0.0 0.0 0.00 0.18 0.01 84 1015.7
20190318043211 35 190 0.0 6.0 0.00 0.18 0.01 85 1015.7
20190318042713 35 190 1.0 6.0 0.00 0.18 0.01 85 1015.8
20190318042212 35 190 2.0 6.0 0.00 0.18 0.01 85 1015.6
20190318041711 35 190 2.0 6.0 0.00 0.18 0.01 85 1015.4
20190318041211 35 190 2.0 8.0 0.00 0.18 0.01 85 1015.6
20190318040713 35 188 3.0 8.0 0.00 0.18 0.01 85 1015.6
20190318040213 35 188 3.0 7.0 0.00 0.18 0.01 85 1015.7
20190318035711 35 182 3.0 7.0 0.00 0.18 0.01 85 1015.6
20190318035211 35 207 2.0 7.0 0.00 0.18 0.01 85 1015.2
20190318034709 35 211 0.0 7.0 0.00 0.18 0.01 85 1015.2
20190318034211 35 216 0.0 6.0 0.00 0.18 0.01 85 1015.3
20190318033708 35 225 1.0 6.0 0.00 0.18 0.01 85 1015.3
20190318033209 35 226 2.0 6.0 0.00 0.18 0.01 85 1015.1
20190318032708 35 225 3.0 6.0 0.00 0.18 0.01 85 1015.3
20190318032210 35 226 3.0 7.0 0.00 0.18 0.01 85 1015.5
20190318031708 35 234 2.0 7.0 0.00 0.18 0.01 85 1015.5
20190318031210 35 234 3.0 6.0 0.00 0.18 0.01 85 1015.6
20190318030709 35 224 3.0 6.0 0.00 0.18 0.01 85 1015.7
20190318030211 36 224 3.0 5.0 0.00 0.18 0.01 85 1015.5
20190318025708 36 224 3.0 5.0 0.00 0.18 0.01 85 1015.5
20190318025209 36 221 2.0 5.0 0.00 0.18 0.01 85 1015.4
20190318024708 36 217 2.0 5.0 0.00 0.18 0.01 85 1015.3
20190318024215 36 217 2.0 6.0 0.00 0.18 0.01 85 1015.3
20190318023707 36 217 2.0 6.0 0.00 0.18 0.01 85 1015.3
20190318023210 36 217 2.0 6.0 0.00 0.18 0.01 85 1015.0
20190318022708 36 215 3.0 6.0 0.00 0.18 0.01 85 1015.1
20190318022211 36 215 4.0 6.0 0.00 0.18 0.01 85 1015.2
20190318021708 35 215 4.0 6.0 0.00 0.18 0.01 85 1015.2
20190318021209 35 216 3.0 7.0 0.00 0.18 0.01 85 1015.1
20190318020709 35 216 3.0 7.0 0.00 0.18 0.01 85 1015.2
20190318020211 35 215 4.0 9.0 0.00 0.18 0.01 85 1015.1
20190318015707 35 215 4.0 9.0 0.00 0.18 0.01 85 1015.2
20190318015209 35 219 4.0 10.0 0.00 0.18 0.01 85 1015.3
20190318014708 35 225 5.0 10.0 0.00 0.18 0.01 85 1015.3
20190318014211 35 215 5.0 8.0 0.00 0.18 0.01 85 1015.4
20190318013708 35 219 5.0 8.0 0.00 0.18 0.01 85 1015.4
20190318013210 35 219 4.0 10.0 0.00 0.18 0.01 85 1015.4
20190318012708 35 222 4.0 10.0 0.00 0.18 0.01 85 1015.4
20190318012210 36 240 4.0 11.0 0.00 0.18 0.01 85 1015.3
20190318011708 36 235 5.0 11.0 0.00 0.18 0.01 85 1015.4
20190318011210 36 239 6.0 13.0 0.00 0.18 0.01 85 1015.4
20190318010711 36 211 6.0 13.0 0.00 0.18 0.01 85 1015.5
20190318010212 36 246 6.0 13.0 0.00 0.18 0.01 85 1015.5
20190318005708 36 241 6.0 13.0 0.00 0.18 0.01 85 1015.5
20190318005209 36 261 7.0 12.0 0.00 0.18 0.01 85 1015.4
20190318004708 36 250 6.0 12.0 0.00 0.18 0.01 85 1015.3
20190318004212 35 240 6.0 12.0 0.01 0.18 0.01 85 1015.3
20190318003707 35 281 6.0 12.0 0.01 0.18 0.01 85 1015.1
20190318003210 35 234 6.0 10.0 0.01 0.18 0.01 85 1015.1
20190318002708 35 221 6.0 10.0 0.01 0.18 0.01 85 1015.3
20190318002211 35 242 6.0 12.0 0.01 0.18 0.01 85 1015.2
20190318001709 35 246 6.0 12.0 0.01 0.18 0.01 85 1015.1
20190318001210 35 247 6.0 12.0 0.01 0.18 0.01 85 1015.1
20190318000714 35 221 6.0 11.0 0.01 0.18 0.01 85 1014.8
20190318000213 35 250 6.0 11.0 0.01 0.18 0.01 85 1014.9
20190317235711 35 235 5.0 13.0 0.02 0.18 0.01 85 1014.8
20190317235211 35 246 6.0 13.0 0.02 0.18 0.01 85 1014.8
20190317234715 35 236 7.0 13.0 0.01 0.17 0.00 85 1014.7
20190317234215 35 219 7.0 13.0 0.01 0.17 0.00 84 1014.7
20190317233714 35 222 7.0 14.0 0.01 0.17 0.00 83 1014.5
20190317233213 35 223 7.0 14.0 0.02 0.17 0.00 82 1014.5
20190317232713 35 229 7.0 14.0 0.02 0.17 0.00 82 1014.6
20190317232215 35 228 6.0 14.0 0.02 0.17 0.00 81 1014.7
20190317231713 35 231 6.0 10.0 0.02 0.17 0.00 81 1014.7
20190317231211 35 209 6.0 10.0 0.02 0.17 0.00 81 1014.7
20190317230713 35 221 5.0 10.0 0.03 0.17 0.17 81 1014.7
20190317230215 35 240 5.0 10.0 0.03 0.17 0.17 81 1014.6
20190317225710 34 233 5.0 9.0 0.02 0.17 0.17 81 1014.4
20190317225212 34 240 4.0 9.0 0.02 0.17 0.17 81 1014.3
20190317224712 34 251 4.0 10.0 0.03 0.17 0.17 81 1014.3
20190317224213 34 261 4.0 10.0 0.03 0.17 0.17 82 1014.5
20190317223714 34 263 5.0 8.0 0.03 0.16 0.17 82 1014.6
20190317223212 34 253 5.0 8.0 0.03 0.16 0.16 83 1014.4
20190317222711 35 246 4.0 8.0 0.03 0.16 0.16 83 1014.3
20190317222213 35 254 3.0 8.0 0.03 0.16 0.16 83 1014.3
20190317221710 35 229 3.0 13.0 0.02 0.15 0.16 83 1014.1
20190317221210 35 233 4.0 13.0 0.02 0.15 0.15 83 1014.0
20190317220713 35 227 5.0 13.0 0.02 0.15 0.15 83 1013.9
20190317220214 35 257 6.0 13.0 0.02 0.14 0.15 84 1014.0
20190317215711 36 273 7.0 13.0 0.02 0.14 0.14 84 1014.0
20190317215211 36 270 6.0 12.0 0.01 0.13 0.14 84 1013.9
20190317214712 36 261 6.0 12.0 0.01 0.13 0.13 84 1014.0
20190317214212 36 267 6.0 12.0 0.01 0.13 0.13 84 1013.8
20190317213713 36 261 6.0 12.0 0.01 0.13 0.13 84 1013.7
20190317213213 37 255 6.0 13.0 0.00 0.13 0.13 84 1013.7
20190317212712 37 272 6.0 13.0 0.00 0.13 0.13 84 1013.6
20190317212213 37 275 6.0 16.0 0.00 0.13 0.13 84 1013.3
20190317211711 37 268 6.0 16.0 0.00 0.13 0.13 84 1013.3
20190317211211 37 257 6.0 23.0 0.00 0.13 0.13 85 1013.2
20190317210713 37 238 7.0 23.0 0.00 0.13 0.13 85 1013.2
20190317210212 37 234 8.0 23.0 0.00 0.13 0.13 85 1013.1
20190317205711 37 247 9.0 23.0 0.00 0.13 0.13 85 1013.1
20190317205210 37 281 10.0 23.0 0.00 0.13 0.13 85 1013.0
20190317204712 37 267 10.0 23.0 0.01 0.13 0.13 85 1012.9
20190317204212 37 244 11.0 23.0 0.01 0.13 0.13 84 1012.8
20190317203713 37 250 11.0 20.0 0.01 0.13 0.13 84 1012.7
20190317203212 37 254 10.0 20.0 0.01 0.13 0.13 84 1012.6
20190317202712 38 267 10.0 21.0 0.01 0.13 0.13 85 1012.3
20190317202213 38 210 9.0 21.0 0.01 0.13 0.13 85 1012.0
20190317201711 38 220 10.0 29.0 0.02 0.13 0.13 85 1012.1
20190317201210 38 205 12.0 29.0 0.02 0.13 0.13 85 1012.3
20190317200715 38 246 13.0 24.0 0.02 0.13 0.13 85 1012.4
20190317200214 38 248 15.0 24.0 0.02 0.13 0.13 85 1012.5
20190317195711 38 267 14.0 24.0 0.02 0.13 0.13 85 1012.5
20190317195211 38 259 12.0 21.0 0.01 0.12 0.13 85 1012.4
20190317194714 38 262 11.0 21.0 0.01 0.12 0.12 84 1012.1
20190317194213 38 281 11.0 22.0 0.02 0.12 0.12 84 1012.1
20190317193713 38 261 12.0 22.0 0.02 0.12 0.12 84 1012.0
20190317193213 38 260 12.0 22.0 0.02 0.12 0.12 84 1011.9
20190317192712 38 261 11.0 22.0 0.02 0.12 0.12 84 1011.7
20190317192214 38 263 11.0 21.0 0.02 0.11 0.12 84 1011.7
20190317191712 38 257 11.0 21.0 0.02 0.11 0.11 84 1011.7
20190317191211 38 275 11.0 20.0 0.04 0.11 0.11 84 1011.7
20190317190713 38 270 12.0 20.0 0.04 0.11 0.11 84 1011.7
20190317190213 38 256 12.0 20.0 0.04 0.11 0.11 84 1011.6
20190317185712 39 262 12.0 18.0 0.06 0.11 0.11 84 1011.4
20190317185210 39 249 11.0 18.0 0.06 0.11 0.11 84 1011.2
20190317184712 38 245 10.0 18.0 0.06 0.10 0.11 84 1011.2
20190317184212 39 275 11.0 18.0 0.06 0.10 0.10 84 1011.0
20190317183713 39 213 11.0 21.0 0.06 0.10 0.10 84 1010.9
20190317183212 39 267 11.0 21.0 0.06 0.10 0.10 84 1010.6
20190317182712 39 267 11.0 19.0 0.07 0.09 0.10 84 1010.6
20190317182212 39 288 10.0 19.0 0.07 0.09 0.09 84 1010.4
20190317181710 39 276 11.0 21.0 0.07 0.08 0.09 84 1010.4
20190317181211 39 263 11.0 21.0 0.07 0.08 0.07 84 1010.2
20190317180715 39 304 9.0 21.0 0.06 0.08 0.07 84 1010.0
20190317180216 39 289 11.0 21.0 0.06 0.06 0.06 84 1009.6
20190317175712 39 298 12.0 21.0 0.06 0.06 0.06 84 1009.4
20190317175214 39 294 10.0 21.0 0.06 0.06 0.06 84 1009.3
20190317174716 40 279 9.0 25.0 0.04 0.04 0.04 84 1009.0
20190317174215 40 296 10.0 25.0 0.04 0.04 0.04 84 1008.9
20190317173716 40 329 11.0 21.0 0.04 0.04 0.04 84 1008.6
20190317173213 40 290 12.0 21.0 0.02 0.02 0.02 83 1008.5
20190317172715 41 268 10.0 21.0 0.02 0.02 0.02 83 1008.5